Simultaneous Nadir Overpasses (SNOs) Predictions

Prediction of SNOs between NOAA-15 and METOP-C Satellite Orbit:

Table of predicted SNOs for the next 14.0 days since TLE Epoch: 6/26/2021
Index Date (NOAA-15) Time (NOAA-15) Lat,Lon (NOAA-15) SZA (NOAA-15 ) Date (METOP-C) Time (METOP-C) Lat,Lon (METOP-C) SZA (METOP-C ) Distance(km) Time Diff (sec)
1 06/26/2021 02:51:15 -81.02, -5.67 120.50 06/26/2021 02:50:00 -81.01, -5.80 120.55 2.58 75
2 06/26/2021 03:41:47 81.02, 161.74 59.51 06/26/2021 03:40:39 81.02, 161.79 59.49 0.85 68
3 06/26/2021 04:32:17 -81.02, -30.86 120.49 06/26/2021 04:31:21 -81.02, -30.94 120.52 1.39 56
4 06/26/2021 05:22:49 81.01, 136.56 59.52 06/26/2021 05:22:00 81.03, 136.66 59.52 2.29 49
5 06/26/2021 06:13:19 -81.01, -56.04 120.48 06/26/2021 06:12:42 -81.03, -56.07 120.49 1.53 37
6 06/26/2021 07:03:52 81.03, 111.02 59.50 06/26/2021 07:03:22 81.02, 111.15 59.50 2.48 30
7 06/26/2021 07:54:22 -81.03, -81.60 120.50 06/26/2021 07:54:04 -81.02, -81.57 120.51 0.86 18
8 06/26/2021 08:44:54 81.02, 85.83 59.51 06/26/2021 08:44:43 81.03, 86.02 59.53 3.31 11
9 06/26/2021 09:35:24 -81.02,-106.78 120.49 06/26/2021 09:35:25 -81.03,-106.71 120.48 1.37 1
10 06/26/2021 10:25:56 81.02, 60.65 59.52 06/26/2021 10:26:05 81.02, 60.52 59.51 2.41 9
11 06/26/2021 11:16:27 -81.04,-132.33 120.51 06/26/2021 11:16:47 -81.02,-132.21 120.50 2.69 20
12 06/26/2021 12:06:58 81.02, 35.47 59.53 06/26/2021 12:07:26 81.03, 35.38 59.54 2.36 28
13 06/26/2021 12:57:29 -81.03,-157.52 120.50 06/26/2021 12:58:08 -81.03,-157.35 120.47 3.03 39
14 06/26/2021 13:48:01 81.03, 9.92 59.51 06/26/2021 13:48:48 81.03, 9.88 59.52 0.89 47
15 06/26/2021 14:38:31 -81.03, 177.30 120.49 06/26/2021 14:39:30 -81.02, 177.15 120.49 2.58 59
16 06/26/2021 15:29:03 81.03, -15.26 59.52 06/26/2021 15:30:09 81.03, -15.25 59.55 0.92 66



Historial Predications of SNOs between NOAA-15 and METOP-C
